Leesburg, FL

2:07 AM EST on February 08, 2016 (GMT -0500)
Leesburg Regional

Weather History for KLEE - June, 2013

Change the Weather History Date:

Thursday, June 6, 2013

  Actual Average Record
Temperature  
Mean Temperature 78 °F -  
Max Temperature 82 °F 89 °F 98 °F (1980)
Min Temperature 73 °F 69 °F 60 °F (1972)
Cooling Degree Days 12    
Growing Degree Days 28 (Base 50)    
Moisture  
Dew Point 72 °F    
Average Humidity 89    
Maximum Humidity 94    
Minimum Humidity 74    
Precipitation  
Precipitation 2.07 in - - ()
Sea Level Pressure  
Sea Level Pressure 29.77 in    
Wind  
Wind Speed 15 mph (SSE)    
Max Wind Speed 26 mph    
Max Gust Speed 37 mph    
Visibility 6 miles    
Events Fog , Rain    
Averages and records for this station are not official NWS values.
T = Trace of Precipitation, MM = Missing Value Source: NWS Daily Summary

Daily Weather History Graph

Daily Weather History Graph

Search for Another Location

Airport or City:

Trip Planner

Search our weather history database for the weather conditions in past years. The results will help you decide how hot, cold, wet, or windy it might be!

Date:

Astronomy

Jun. 06, 2013 Rise Set
Actual Time 6:28 AM EDT 8:23 PM EDT
Civil Twilight 6:01 AM EDT 8:50 PM EDT
Nautical Twilight 5:29 AM EDT 9:22 PM EDT
Astronomical Twilight 4:54 AM EDT 9:57 PM EDT
Moon 5:01 AM EDT (6/6) 6:50 PM EDT (6/6)
Length of Visible Light 14h 48m
Length of Day
13h 55m
Waning Crescent, 4% of the Moon is Illuminated
Jun 6
Waning Crescent
Jun 8
New
Jun 16
First Quarter
Jun 23
Full
Jun 30
Last Quarter

Hourly Weather History & Observations

Time (EDT) Temp. Heat Index Dew Point Humidity Pressure Visibility Wind Dir Wind Speed Gust Speed Precip Events Conditions
12:53 AM 77.0 °F - 73.9 °F 90% 29.93 in 10.0 mi ESE 11.5 mph - N/A   Overcast
1:53 AM 77.0 °F - 73.9 °F 90% 29.91 in 10.0 mi SE 12.7 mph - 0.00 in   Overcast
2:53 AM 77.0 °F - 73.9 °F 90% 29.89 in 10.0 mi SE 8.1 mph - 0.01 in Rain Light Rain
3:53 AM 75.9 °F - 73.0 °F 91% 29.86 in 10.0 mi ESE 8.1 mph - 0.02 in Rain Light Rain
4:53 AM 75.9 °F - 72.0 °F 87% 29.85 in 10.0 mi East 8.1 mph 17.3 mph 0.02 in Rain Light Rain
5:53 AM 75.0 °F - 72.0 °F 90% 29.85 in 5.0 mi East 9.2 mph - 0.10 in Rain Rain
6:28 AM 75.2 °F - 71.6 °F 89% 29.85 in 4.0 mi ESE 12.7 mph 18.4 mph 0.16 in Rain Rain
6:38 AM 75.2 °F - 71.6 °F 89% 29.85 in 4.0 mi SE 18.4 mph 26.5 mph 0.19 in Rain Rain
6:53 AM 73.9 °F - 71.1 °F 91% 29.85 in 3.0 mi SE 17.3 mph 21.9 mph 0.27 in Rain Heavy Rain
7:00 AM 73.4 °F - 71.6 °F 94% 29.85 in 2.0 mi SE 12.7 mph 21.9 mph 0.04 in Rain Heavy Rain
7:10 AM 73.4 °F - 71.6 °F 94% 29.83 in 1.5 mi East 11.5 mph - 0.12 in Rain Heavy Rain
7:42 AM 73.4 °F - 71.6 °F 94% 29.82 in 1.0 mi East 15.0 mph 23.0 mph 0.41 in Rain Heavy Rain
7:53 AM 73.0 °F - 71.1 °F 93% 29.81 in 1.8 mi East 19.6 mph 32.2 mph 0.46 in Rain Heavy Rain
8:11 AM 73.4 °F - 71.6 °F 94% 29.82 in 2.0 mi ESE 19.6 mph 28.8 mph 0.06 in Rain Rain
8:18 AM 73.4 °F - 71.6 °F 94% 29.83 in 4.0 mi ESE 20.7 mph 29.9 mph 0.06 in Rain Light Rain
8:44 AM 73.4 °F - 71.6 °F 94% 29.83 in 5.0 mi ESE 24.2 mph 32.2 mph 0.08 in Rain Light Rain
8:53 AM 73.9 °F - 71.1 °F 91% 29.83 in 6.0 mi SE 20.7 mph 29.9 mph 0.08 in Rain Light Rain
9:26 AM 73.4 °F - 71.6 °F 94% 29.82 in 5.0 mi ESE 20.7 mph 28.8 mph 0.04 in Rain Light Rain
9:53 AM 75.0 °F - 72.0 °F 90% 29.81 in 10.0 mi ESE 13.8 mph 26.5 mph 0.05 in Rain Light Rain
10:24 AM 75.2 °F - 71.6 °F 89% 29.81 in 1.8 mi ESE 18.4 mph - 0.08 in Rain Heavy Rain
10:38 AM 73.4 °F - 71.6 °F 94% 29.81 in 1.0 mi ESE 20.7 mph 26.5 mph 0.23 in Rain Heavy Rain
10:53 AM 73.9 °F - 72.0 °F 93% 29.81 in 3.0 mi SE 18.4 mph 25.3 mph 0.31 in Rain Rain
10:58 AM 75.2 °F - 71.6 °F 89% 29.80 in 4.0 mi ESE 18.4 mph - 0.01 in Rain Rain
11:34 AM 75.2 °F - 73.4 °F 94% 29.79 in 10.0 mi ESE 17.3 mph 24.2 mph 0.04 in Rain Light Rain
11:45 AM 75.2 °F - 73.4 °F 94% 29.79 in 5.0 mi ESE 18.4 mph - 0.06 in Rain Light Rain
11:53 AM 75.9 °F - 73.0 °F 91% 29.78 in 10.0 mi ESE 17.3 mph 24.2 mph 0.06 in Rain Light Rain
12:13 PM 75.2 °F - 73.4 °F 94% 29.78 in 10.0 mi ESE 16.1 mph - 0.01 in Rain Light Rain
12:48 PM 77.0 °F - 73.4 °F 89% 29.77 in 9.0 mi SE 12.7 mph 21.9 mph 0.06 in Rain Light Rain
12:53 PM 77.0 °F - 73.9 °F 90% 29.76 in 9.0 mi SE 13.8 mph 21.9 mph 0.06 in Rain Light Rain
1:39 PM 77.0 °F - 75.2 °F 94% 29.73 in 3.0 mi SE 10.4 mph 19.6 mph 0.09 in Rain Rain
1:42 PM 77.0 °F - 75.2 °F 94% 29.73 in 1.8 mi SSE 13.8 mph 19.6 mph 0.15 in Rain Rain
1:53 PM 77.0 °F - 75.0 °F 94% 29.73 in 0.8 mi South 16.1 mph 23.0 mph 0.33 in Rain Heavy Rain
2:03 PM 77.0 °F - 75.2 °F 94% 29.73 in 0.5 mi South 16.1 mph 27.6 mph 0.25 in Fog , Rain Heavy Rain
2:12 PM 77.0 °F - 73.4 °F 89% 29.73 in 2.5 mi South 19.6 mph 34.5 mph 0.27 in Rain Light Rain
2:14 PM 77.0 °F - 73.4 °F 89% 29.73 in 4.0 mi South 21.9 mph 34.5 mph 0.27 in Rain Light Rain
2:53 PM 78.1 °F - 75.0 °F 90% 29.69 in 10.0 mi South 16.1 mph 20.7 mph 0.27 in Rain Light Rain
3:53 PM 81.0 °F 86.2 °F 73.9 °F 79% 29.67 in 10.0 mi South 24.2 mph 33.4 mph 0.00 in   Overcast
4:08 PM 82.4 °F 88.2 °F 73.4 °F 74% 29.66 in 10.0 mi South 24.2 mph 36.8 mph N/A   Mostly Cloudy
4:53 PM 80.1 °F 83.6 °F 71.1 °F 74% 29.65 in 10.0 mi SSW 26.5 mph 36.8 mph N/A   Mostly Cloudy
5:26 PM 80.6 °F 84.6 °F 71.6 °F 74% 29.65 in 10.0 mi South 20.7 mph 28.8 mph N/A   Overcast
5:49 PM 75.2 °F - 71.6 °F 89% 29.65 in 1.8 mi SSW 16.1 mph 26.5 mph 0.02 in Rain Rain
5:50 PM 75.9 °F - 72.0 °F 87% 29.65 in 1.5 mi SSW 15.0 mph 25.3 mph 0.03 in Rain Light Rain
6:00 PM 77.0 °F - 73.4 °F 89% 29.65 in 3.0 mi South 18.4 mph 23.0 mph 0.00 in Rain Light Rain
6:09 PM 78.8 °F - 73.4 °F 83% 29.64 in 10.0 mi SSW 17.3 mph 28.8 mph 0.00 in   Overcast
6:53 PM 78.1 °F - 72.0 °F 81% 29.65 in 10.0 mi SSW 19.6 mph 33.4 mph 0.00 in   Overcast
7:53 PM 75.9 °F - 70.0 °F 82% 29.66 in 10.0 mi SW 18.4 mph 32.2 mph N/A   Scattered Clouds
8:53 PM 77.0 °F - 70.0 °F 79% 29.68 in 10.0 mi SSW 19.6 mph 27.6 mph N/A   Mostly Cloudy
9:53 PM 75.9 °F - 70.0 °F 82% 29.72 in 10.0 mi SSW 15.0 mph 25.3 mph N/A   Scattered Clouds
10:20 PM 75.2 °F - 69.8 °F 83% 29.73 in 10.0 mi SSW 19.6 mph 26.5 mph N/A   Mostly Cloudy
10:27 PM 75.2 °F - 69.8 °F 83% 29.74 in 10.0 mi SSW 17.3 mph 26.5 mph N/A   Scattered Clouds
10:53 PM 75.9 °F - 70.0 °F 82% 29.75 in 10.0 mi SSW 16.1 mph 24.2 mph N/A   Scattered Clouds
11:53 PM 75.9 °F - 71.1 °F 85% 29.76 in 10.0 mi SSW 16.1 mph 26.5 mph N/A   Overcast